Location: Bethera
(33.2010°N, 79.7880°W)
Time: 06:21:37
(UTC-04:00)

Amateur Radio Satellites - All Passes

Search period start: 30 September 2014 05:51
Search period end: 01 October 2014 05:51
Location: Bethera, 33.2010°N, 79.7880°W

Satellite Date Start Highest point End Downlink Frequencies (MHz)
Time Altitude Azimuth
OPAL 30 Sep 05:56:03 06:01:00 45° 259° (WSW) 06:06:00 ?
SO-50 30 Sep 06:00:14 06:04:53 46° 246° (WSW) 06:09:32 436.795 FM
MaSat-1 30 Sep 06:02:55 06:07:47 68° 110° (ESE) 06:12:32 437.345 MHz
RS-15 30 Sep 06:05:30 06:12:05 17° 328° (NNW) 06:18:43 29.354 - 29.394 USB, Beacon 29.352 USB
ISS 30 Sep 06:25:06 06:28:26 85° 44° (NE) 06:31:44 145.800 FM
UOSAT-12 30 Sep 06:34:35 06:38:49 32° 55° (NE) 06:42:59 437.025 FM, 437.400 FM
Hamsat 30 Sep 06:48:19 06:52:20 45° 99° (E) 06:56:19 145.90 MHz
Uosat F 30 Sep 06:52:17 06:55:51 20° 293° (WNW) 06:59:25 435.120 FM
STRAND 1 30 Sep 06:56:00 07:00:45 42° 72° (ENE) 07:05:33 ?
JAS-2 30 Sep 07:05:40 07:12:30 85° 103° (ESE) 07:20:05 435.800 - 435.900 CW/SSB, 435.910 FM
MaSat-1 30 Sep 07:42:31 07:44:39 13° 304° (NW) 07:46:44 437.345 MHz
AO-7 30 Sep 07:46:02 07:50:59 18° 304° (NW) 07:55:57 29.400 - 29.500 MHz
SO-67 30 Sep 08:10:46 08:14:10 55° 100° (E) 08:17:32 435.3500 MHz FM
UOSAT-12 30 Sep 08:15:07 08:18:45 23° 250° (WSW) 08:22:20 437.025 FM, 437.400 FM
Hamsat 30 Sep 08:26:20 08:27:51 12° 293° (WNW) 08:29:21 145.90 MHz
STRAND 1 30 Sep 08:36:43 08:40:04 18° 266° (W) 08:43:27 ?
JAS-2 30 Sep 08:53:12 08:56:52 15° 296° (WNW) 09:00:43 435.800 - 435.900 CW/SSB, 435.910 FM
HO-68 30 Sep 09:23:44 09:29:42 28° 97° (E) 09:35:38 435.675 MHz FM
Sapphire 30 Sep 09:28:31 09:33:20 35° 109° (ESE) 09:38:12 437.095 MHz 1200 baud AX-25 AFSK
PCSat 30 Sep 09:53:35 09:58:56 68° 113° (ESE) 10:04:19 145.825 MHz
Oscar 11 30 Sep 10:38:01 10:42:07 41° 99° (E) 10:46:10 145.825 FM, Beacon 2401.500 USB
RS-15 30 Sep 10:40:55 10:49:57 27° 43° (NE) 10:59:11 29.354 - 29.394 USB, Beacon 29.352 USB
FUNcube-1 30 Sep 10:59:59 11:03:55 29° 96° (E) 11:07:45 145.950 - 145.970 MHz USB
UKube-1 30 Sep 11:06:22 11:10:43 68° 285° (WNW) 11:15:02 145.840 MHz, 145.915 MHz
HO-68 30 Sep 11:10:43 11:17:30 47° 291° (WNW) 11:24:17 435.675 MHz FM
Sapphire 30 Sep 11:12:14 11:16:45 27° 304° (NW) 11:21:18 437.095 MHz 1200 baud AX-25 AFSK
PCSat 30 Sep 11:39:42 11:42:49 15° 309° (NW) 11:45:57 145.825 MHz
ZACube-1 30 Sep 11:44:30 11:49:03 80° 283° (WNW) 11:53:28 437.345 MHz
Oscar 11 30 Sep 12:15:42 12:17:54 14° 293° (WNW) 12:20:05 145.825 FM, Beacon 2401.500 USB
FUNcube-1 30 Sep 12:36:42 12:40:04 21° 291° (WNW) 12:43:23 145.950 - 145.970 MHz USB
RS-15 30 Sep 12:52:21 13:03:35 83° 244° (WSW) 13:15:20 29.354 - 29.394 USB, Beacon 29.352 USB
Oscar 16 30 Sep 13:07:32 13:11:17 21° 67° (ENE) 13:15:03 437.025 USB, Beacon 2401.1428
AO-Echo 30 Sep 13:25:55 13:27:35 12° 65° (ENE) 13:29:16 ?
Saudisat 1A 30 Sep 13:43:57 13:47:20 22° 111° (ESE) 13:50:43 436.775 MHz
JAS-1B 30 Sep 13:53:33 14:00:53 43° 72° (ENE) 14:07:07 435.800 - 435.900 CW/SSB
Oscar 19 30 Sep 14:04:06 14:09:17 76° 76° (ENE) 14:14:29 437.125 CW, 437.150 USB
ITAMSAT 1 30 Sep 14:14:39 14:19:22 37° 71° (ENE) 14:24:07 435.822 SSB
Uribyol 2 30 Sep 14:15:36 14:20:25 41° 72° (ENE) 14:25:17 436.500 FM
Oscar 16 30 Sep 14:45:29 14:50:19 39° 261° (W) 14:55:11 437.025 USB, Beacon 2401.1428
AO-27 30 Sep 14:52:22 14:57:32 87° 257° (WSW) 15:02:45 436.795 MHz FM
AO-7 30 Sep 14:57:19 15:01:39 15° 54° (NE) 15:05:57 29.400 - 29.500 MHz
AO-Echo 30 Sep 15:01:14 15:05:50 57° 259° (W) 15:10:27 ?
RS-15 30 Sep 15:08:29 15:14:21 16° 260° (W) 15:20:23 29.354 - 29.394 USB, Beacon 29.352 USB
Gurwin Techsat 1B 30 Sep 15:12:54 15:18:08 68° 75° (ENE) 15:23:25 435.225 FM
Saudisat 1A 30 Sep 15:22:52 15:26:42 29° 305° (NW) 15:30:34 436.775 MHz
TMSAT-1 30 Sep 15:41:59 15:47:16 86° 257° (WSW) 15:52:36 436.925 FM
JAS-1B 30 Sep 15:44:35 15:51:25 30° 261° (W) 15:57:22 435.800 - 435.900 CW/SSB
KITSAT 1 30 Sep 15:53:09 15:56:56 14° 101° (E) 16:00:43 435.175 FM
ITAMSAT 1 30 Sep 15:55:06 15:58:54 21° 265° (W) 16:02:45 435.822 SSB
Uribyol 2 30 Sep 15:56:24 16:00:00 19° 265° (W) 16:03:37 436.500 FM
MaSat-1 30 Sep 15:59:19 16:02:24 42° 64° (ENE) 16:05:06 437.345 MHz
Uosat F 30 Sep 16:22:01 16:26:30 35° 71° (ENE) 16:31:00 435.120 FM
AO-7 30 Sep 16:44:53 16:53:11 83° 72° (ENE) 17:01:29 29.400 - 29.500 MHz
Gurwin Techsat 1B 30 Sep 16:56:55 16:58:30 11° 268° (W) 17:00:05 435.225 FM
JAS-2 30 Sep 17:16:43 17:20:09 18° 65° (ENE) 17:23:40 435.800 - 435.900 CW/SSB, 435.910 FM
Hamsat 30 Sep 17:38:10 17:41:21 20° 70° (ENE) 17:44:31 145.90 MHz
KITSAT 1 30 Sep 17:43:07 17:51:13 90° 115° (ESE) 17:59:20 435.175 FM
Uosat F 30 Sep 18:01:35 18:05:18 21° 264° (W) 18:09:03 435.120 FM
OPAL 30 Sep 18:10:06 18:15:10 70° 104° (ESE) 18:20:09 ?
Sapphire 30 Sep 18:22:11 18:24:41 13° 49° (NE) 18:27:10 437.095 MHz 1200 baud AX-25 AFSK
SO-50 30 Sep 18:33:28 18:35:24 13° 107° (ESE) 18:37:22 436.795 FM
AO-7 30 Sep 18:41:54 18:46:38 16° 266° (W) 18:51:25 29.400 - 29.500 MHz
PCSat 30 Sep 18:46:30 18:50:46 23° 55° (NE) 18:55:00 145.825 MHz
JAS-2 30 Sep 19:00:03 19:04:54 41° 261° (W) 19:09:52 435.800 - 435.900 CW/SSB, 435.910 FM
STRAND 1 30 Sep 19:11:35 19:15:23 21° 95° (E) 19:19:10 ?
Hamsat 30 Sep 19:13:23 19:17:05 27° 263° (W) 19:20:48 145.90 MHz
KITSAT 1 30 Sep 19:42:12 19:47:39 19° 315° (NW) 19:53:07 435.175 FM
HO-68 30 Sep 19:51:00 19:54:12 14° 58° (ENE) 19:57:24 435.675 MHz FM
OPAL 30 Sep 19:51:38 19:53:23 12° 299° (WNW) 19:55:07 ?
PANSAT 30 Sep 19:59:49 20:02:54 23° 164° (SSE) 20:05:59 not established
Sapphire 30 Sep 20:03:17 20:08:43 81° 246° (WSW) 20:14:08 437.095 MHz 1200 baud AX-25 AFSK
SO-50 30 Sep 20:11:07 20:15:26 50° 302° (WNW) 20:19:53 436.795 FM
SO-67 30 Sep 20:12:19 20:15:29 34° 262° (W) 20:18:40 435.3500 MHz FM
PCSat 30 Sep 20:29:14 20:34:18 41° 250° (WSW) 20:39:20 145.825 MHz
UOSAT-12 30 Sep 20:42:10 20:45:53 25° 110° (ESE) 20:49:39 437.025 FM, 437.400 FM
STRAND 1 30 Sep 20:49:54 20:54:37 37° 289° (WNW) 20:59:19 ?
ISS 30 Sep 21:28:23 21:30:56 21° 129° (SE) 21:33:30 145.800 FM
Oscar 11 30 Sep 21:29:42 21:32:52 20° 70° (ENE) 21:36:03 145.825 FM, Beacon 2401.500 USB
HO-68 30 Sep 21:33:42 21:40:50 86° 74° (ENE) 21:48:01 435.675 MHz FM
PANSAT 30 Sep 21:39:05 21:42:42 39° 176° (S) 21:46:19 not established
FUNcube-1 30 Sep 21:53:21 21:55:57 15° 67° (ENE) 21:58:36 145.950 - 145.970 MHz USB
UKube-1 30 Sep 21:57:31 22:01:45 59° 75° (ENE) 22:06:02 145.840 MHz, 145.915 MHz
UOSAT-12 30 Sep 22:21:50 22:25:52 29° 306° (NW) 22:29:58 437.025 FM, 437.400 FM
ZACube-1 30 Sep 22:36:26 22:40:46 48° 74° (ENE) 22:45:11 437.345 MHz
ISS 30 Sep 23:04:34 23:07:30 28° 323° (NW) 23:10:26 145.800 FM
Oscar 11 30 Sep 23:05:04 23:08:50 28° 263° (W) 23:12:37 145.825 FM, Beacon 2401.500 USB
PANSAT 30 Sep 23:19:04 23:22:35 34° 189° (S) 23:26:05 not established
HO-68 30 Sep 23:26:13 23:29:12 13° 268° (W) 23:32:12 435.675 MHz FM
FUNcube-1 30 Sep 23:27:40 23:31:55 42° 262° (W) 23:36:16 145.950 - 145.970 MHz USB
Oscar 10/S400 30 Sep 23:40:02 18:48:42 73° 169° (S) 03:05:00 145.825 - 145.975 CW/USB, Beacon 145.810 USB
Saudisat 1A 30 Sep 23:52:47 23:57:11 64° 60° (ENE) 00:01:32 436.775 MHz
AO-40 01 Oct 00:15:14 01:39:36 22° 235° (SW) 04:16:15 Beacon 2401.320
ZACube-1 01 Oct 00:15:26 00:17:23 13° 268° (W) 00:19:21 437.345 MHz
PANSAT 01 Oct 00:59:54 01:02:17 16° 201° (SSW) 01:04:41 not established
RS-15 01 Oct 01:02:41 01:09:59 20° 102° (ESE) 01:17:08 29.354 - 29.394 USB, Beacon 29.352 USB
KITSAT 1 01 Oct 01:42:11 01:48:15 23° 47° (NE) 01:54:17 435.175 FM
Oscar 19 01 Oct 02:20:24 02:25:09 37° 98° (E) 02:29:51 437.125 CW, 437.150 USB
ITAMSAT 1 01 Oct 02:32:34 02:36:14 19° 95° (E) 02:39:53 435.822 SSB
Uribyol 2 01 Oct 02:33:20 02:37:13 21° 95° (E) 02:41:05 436.500 FM
Oscar 16 01 Oct 03:01:09 03:06:18 79° 284° (WNW) 03:11:25 437.025 USB, Beacon 2401.1428
RS-15 01 Oct 03:09:50 03:20:58 82° 298° (WNW) 03:31:56 29.354 - 29.394 USB, Beacon 29.352 USB
AO-27 01 Oct 03:09:51 03:14:54 48° 100° (E) 03:19:55 436.795 MHz FM
AO-Echo 01 Oct 03:12:00 03:17:02 64° 101° (ESE) 03:22:11 ?
JAS-1B 01 Oct 03:32:22 03:38:07 83° 285° (WNW) 03:44:30 435.800 - 435.900 CW/SSB
Gurwin Techsat 1B 01 Oct 03:33:42 03:38:38 38° 98° (E) 03:43:33 435.225 FM
KITSAT 1 01 Oct 03:36:21 03:44:25 77° 246° (WSW) 03:52:26 435.175 FM
Oscar 19 01 Oct 04:00:25 04:04:11 21° 292° (WNW) 04:07:57 437.125 CW, 437.150 USB
TMSAT-1 01 Oct 04:02:16 04:07:28 54° 100° (E) 04:12:38 436.925 FM
ITAMSAT 1 01 Oct 04:10:57 04:15:50 41° 288° (WNW) 04:20:42 435.822 SSB
Uribyol 2 01 Oct 04:11:56 04:16:44 38° 289° (WNW) 04:21:31 436.500 FM
Uosat F 01 Oct 04:35:11 04:38:03 15° 94° (E) 04:40:54 435.120 FM
SO-50 01 Oct 04:46:29 04:51:08 45° 58° (ENE) 04:55:48 436.795 FM
AO-27 01 Oct 04:50:38 04:53:58 18° 294° (WNW) 04:57:19 436.795 MHz FM
AO-7 01 Oct 04:51:47 04:59:15 36° 99° (E) 05:06:40 29.400 - 29.500 MHz
AO-Echo 01 Oct 04:53:05 04:55:15 13° 295° (WNW) 04:57:27 ?
Gurwin Techsat 1B 01 Oct 05:14:20 05:18:18 22° 292° (WNW) 05:22:16 435.225 FM
OPAL 01 Oct 05:20:35 05:25:47 78° 74° (ENE) 05:31:01 ?
RS-15 01 Oct 05:27:13 05:35:08 22° 322° (NW) 05:43:06 29.354 - 29.394 USB, Beacon 29.352 USB
ISS 01 Oct 05:36:09 05:39:20 42° 40° (NE) 05:42:30 145.800 FM
KITSAT 1 01 Oct 05:37:12 05:38:29 10° 261° (W) 05:39:47 435.175 FM
MaSat-1 01 Oct 05:37:15 05:41:59 51° 109° (ESE) 05:46:35 437.345 MHz
TMSAT-1 01 Oct 05:43:47 05:46:53 16° 295° (WNW) 05:49:58 436.925 FM
